This demonstration page uses our WeatherBlox Daily Observations layout. Learn more.

Left ArrowRight Arrow

Hourly Observations for November 6, 2018

Temp ( °F °C ) Dew Point ( °F °C ) Humidity (%) Winds ( mph kmh ) Pressure ( in mb ) Visibility ( mi km ) Precip ( " mm )
12:57 am 00:57 Clear 30 -1.1 27 -2.8 88 88 WNW 6 9 29.88 1012 10 16 0.00 0.00
1:57 am 01:57 Clear 33 0.6 28 -2.2 82 82 NW 7 11 29.89 1012 10 16 0.00 0.00
2:57 am 02:57 Clear 32 0 28 -2.2 85 85 WNW 6 9 29.90 1013 10 16 0.00 0.00
3:57 am 03:57 Clear 30 -1.1 27 -2.8 88 88 W 5 7 29.92 1013 10 16 0.00 0.00
4:57 am 04:57 Clear 29 -1.7 26 -3.3 89 89 NW 3 6 29.93 1014 10 16 0.00 0.00
5:57 am 05:57 Clear 28 -2.2 25 -3.9 88 88 WNW 5 7 29.96 1015 10 16 0.00 0.00
6:57 am 06:57 Mostly Clear 32 0 28 -2.2 85 85 WNW 7 11 29.99 1016 10 16 0.00 0.00
7:57 am 07:57 Cloudy 35 1.7 30 -1.1 82 82 W 6 9 30.02 1017 10 16 0.00 0.00
8:57 am 08:57 Mostly Cloudy 37 2.8 31 -0.6 79 79 NNW 9 15 30.05 1018 10 16 0.00 0.00
9:57 am 09:57 Cloudy 36 2.2 31 -0.6 82 82 N 14 22 30.07 1018 10 16 0.00 0.00
10:57 am 10:57 Cloudy 37 2.8 32 0 82 82 NW 6 9 30.08 1019 10 16 0.00 0.03
11:10 am 11:10 Cloudy 37 3 32 0 81 81 WNW 5 7 30.09 1019 10 16 0.00 0.00
11:41 am 11:41 Partly Cloudy 39 4 32 0 75 75 Calm 30.09 1019 10 16 0.00 0.00
11:57 am 11:57 Partly Cloudy 42 5.6 33 0.6 71 71 SW 6 9 30.07 1018 10 16 0.00 0.00
12:06 pm 12:06 Mostly Cloudy 41 5 34 1 76 76 Calm 30.06 1018 10 16 0.00 0.00
12:57 pm 12:57 Partly Cloudy 44 6.7 33 0.6 65 65 WNW 8 13 30.05 1018 10 16 0.00 0.00
1:57 pm 13:57 Sunny 47 8.3 32 0 56 56 VRB 7 11 30.02 1017 10 16 0.00 0.00
2:57 pm 14:57 Sunny 49 9.4 30 -1.1 48 48 WNW 8 13 30.02 1017 10 16 0.00 0.00
3:57 pm 15:57 Sunny 49 9.4 30 -1.1 48 48 WNW 5 7 30.03 1017 10 16 0.00 0.00
4:57 pm 16:57 Sunny 49 9.4 27 -2.8 43 43 NW 6 9 30.05 1018 10 16 0.00 0.00
5:57 pm 17:57 Clear 43 6.1 28 -2.2 56 56 Calm 30.08 1019 10 16 0.00 0.00
6:57 pm 18:57 Clear 40 4.4 27 -2.8 60 60 Calm 30.11 1020 10 16 0.00 0.00
7:57 pm 19:57 Clear 39 3.9 26 -3.3 60 60 NE 3 6 30.12 1020 10 16 0.00 0.00
8:57 pm 20:57 Clear 33 0.6 25 -3.9 72 72 NNW 6 9 30.16 1021 10 16 0.00 0.00
9:57 pm 21:57 Clear 32 0 24 -4.4 73 73 NW 6 9 30.19 1023 10 16 0.00 0.00
10:57 pm 22:57 Clear 31 -0.6 20 -6.7 64 64 N 7 11 30.22 1023 10 16 0.00 0.00
11:57 pm 23:57 Clear 29 -1.7 20 -6.7 69 69 NW 5 7 30.23 1024 10 16 0.00 0.00

Powered by AerisWeather